| time (UTC) | temp C | wind direction | speed KPH | gust KPH | rain 1hr cm | rain 24hr cm | rain mn cm | humidity % | barometer mb |
| 20260505004226 | 25 | 136 | 4.8 | 8.0 | 0.00 | 0.00 | 0.00 | 80 | 1013.5 |
| 20260505001226 | 25 | 143 | 4.8 | 12.9 | 0.00 | 0.00 | 0.00 | 86 | 1013.6 |
| 20260504234226 | 23 | 144 | 4.8 | 11.3 | 0.00 | 0.00 | 0.00 | 88 | 1013.6 |
| 20260504231226 | 23 | 140 | 4.8 | 11.3 | 0.00 | 0.00 | 0.00 | 90 | 1013.9 |
| 20260504224226 | 23 | 135 | 4.8 | 11.3 | 0.00 | 0.00 | 0.00 | 94 | 1013.9 |
| 20260504221226 | 22 | 138 | 3.2 | 6.4 | 0.00 | 0.00 | 0.00 | 97 | 1013.8 |
| 20260504214226 | 20 | 156 | 4.8 | 9.7 | 0.00 | 0.00 | 0.00 | 98 | 1013.7 |
| 20260504211226 | 19 | 158 | 3.2 | 8.0 | 0.00 | 0.00 | 0.00 | 98 | 1013.4 |
| 20260504204226 | 18 | 165 | 3.2 | 8.0 | 0.00 | 0.03 | 0.00 | 97 | 1013.3 |
| 20260504201226 | 18 | 176 | 3.2 | 9.7 | 0.00 | 0.03 | 0.00 | 97 | 1013.0 |
| 20260504194226 | 18 | 159 | 3.2 | 6.4 | 0.00 | 0.03 | 0.00 | 97 | 1012.7 |
| 20260504191226 | 18 | 154 | 3.2 | 6.4 | 0.00 | 0.03 | 0.00 | 96 | 1012.4 |
| 20260504184226 | 18 | 165 | 3.2 | 6.4 | 0.00 | 0.03 | 0.00 | 96 | 1012.0 |
| 20260504181226 | 18 | 154 | 1.6 | 6.4 | 0.00 | 0.03 | 0.00 | 96 | 1012.0 |
| 20260504174226 | 18 | 171 | 1.6 | 6.4 | 0.00 | 0.03 | 0.00 | 96 | 1012.0 |
| 20260504171226 | 18 | 156 | 1.6 | 4.8 | 0.00 | 0.03 | 0.00 | 96 | 1012.2 |
| 20260504141226 | 20 | 154 | 1.6 | 4.8 | 0.00 | 0.03 | 0.00 | 93 | 1013.2 |
| 20260504081226 | 22 | 129 | 1.6 | 6.4 | 0.00 | 0.03 | 0.03 | 84 | 1013.0 |
| 20260504044226 | 26 | 112 | 4.8 | 8.0 | 0.00 | 0.03 | 0.03 | 72 | 1011.9 |
| 20260504041226 | 26 | 138 | 4.8 | 11.3 | 0.00 | 0.03 | 0.03 | 72 | 1012.1 |
| 20260504034226 | 26 | 116 | 3.2 | 6.4 | 0.00 | 0.03 | 0.03 | 73 | 1012.3 |
| 20260504031226 | 26 | 135 | 4.8 | 9.7 | 0.00 | 0.03 | 0.03 | 73 | 1012.4 |
| 20260504024226 | 25 | 124 | 4.8 | 8.0 | 0.00 | 0.03 | 0.03 | 77 | 1012.7 |
| 20260504021226 | 25 | 115 | 4.8 | 9.7 | 0.00 | 0.03 | 0.03 | 80 | 1013.1 |
| 20260504014226 | 25 | 132 | 3.2 | 6.4 | 0.00 | 0.03 | 0.03 | 81 | 1013.7 |
| 20260504011226 | 25 | 136 | 4.8 | 11.3 | 0.00 | 0.03 | 0.03 | 83 | 1014.1 |